Kuchera_Ratio
0.0 0.0 0.0 0.0 0.0 0.0 0.0 0.0 0.0 0.0 0.0 0.0 0.0 0.0 0.0 0.0 0.0 0.0 0.0 0.0 0.0 0.0 0.0 0.0 0.0 0.0 0.0 0.0 0.0 0.0 0.0 0.0 0.0 0.0 0.0 0.0 0.0 0.0 0.0 0.0 0.0 0.0 0.0
0.0 0.0 0.0 0.0 0.0 0.0 0.0 0.0 0.0 0.0 0.0 0.0 0.0 0.0 0.0 0.0 0.0 0.0 0.0 0.0 0.0 0.0 0.0 0.0 0.0 0.0 0.0 0.0 0.0 0.0 0.0 0.0 0.0 0.0 0.0 0.0 0.0 0.0 0.0 0.0 0.0 0.0 0.0
0.0 0.0 0.0 0.0 0.0 0.0 0.0 0.0 0.0 0.0 0.0 0.0 0.0 0.0 0.0 0.0 0.0 0.0 0.0 0.0 0.0 0.0 0.0 0.0 0.0 0.0 0.0 0.0 0.0 0.0 0.0 0.0 0.0 0.0 0.0 0.0 0.0 0.0 0.0 0.0 0.0 0.0 0.0
0.0 0.0 0.0 0.0 0.0 0.0 0.0 0.0 0.0 0.0 0.0 0.0 0.0 0.0 0.0 0.0 0.0 0.0 0.0 0.0 0.0 0.0 0.0 0.0 0.0 0.0 0.0 0.0 0.0 0.0 0.0 0.0 0.0 0.0 0.0 0.0 0.0 0.0 0.0 0.0 0.0 0.0 0.0
0.0 0.0 0.0 0.0 0.0 0.0 0.0 0.0 0.0 0.0 0.0 0.0 0.0 0.0 0.0 0.0 0.0 0.0 0.0 0.0 0.0 0.0 0.0 0.0 0.0 0.0 0.0 0.0 0.0 0.0 0.0 0.0 0.0 0.0 0.0 0.0 0.0 0.0 0.0 0.0 0.0 0.0 0.0
0.0 0.0 0.0 0.0 0.0 0.0 0.0 0.0 0.0 0.0 0.0 0.0 0.0 0.0 0.0 0.0 0.0 0.0 0.0 0.0 0.0 0.0 0.0 0.0 0.0 0.0 0.0 0.0 0.0 0.0 0.0 0.0 0.0 0.0 0.0 0.0 0.0 0.0 0.0 0.0 0.0 0.0 1.5
0.0 0.0 0.0 0.0 0.0 0.0 0.0 0.0 0.0 0.0 0.0 0.0 0.0 0.0 0.0 0.0 0.0 0.0 0.0 0.0 0.0 0.0 0.0 0.0 0.0 0.0 0.0 0.0 0.0 0.0 0.0 0.0 0.0 0.0 0.0 0.0 0.0 0.0 0.0 0.0 0.0 0.0 0.0
0.0 0.0 0.0 0.0 0.0 0.0 0.0 0.0 0.0 0.0 0.0 0.0 0.0 0.0 0.0 0.0 0.0 0.0 0.0 0.0 0.0 0.0 0.0 0.0 0.0 0.0 0.0 0.0 0.0 0.0 0.0 0.0 0.0 0.0 0.0 0.0 0.0 0.0 0.0 0.0 0.0 0.0 0.0
0.0 0.0 0.0 0.0 0.0 0.0 0.0 0.0 0.0 0.0 0.0 0.0 0.0 0.0 0.0 0.0 0.0 0.2 0.0 0.0 0.0 0.0 0.0 0.0 0.0 0.0 0.0 0.0 0.0 0.0 0.0 0.0 0.0 0.0 0.0 0.0 0.2 2.1 0.5 0.0 1.9 3.7 6.1
0.0 0.0 0.0 0.0 0.0 0.0 0.0 0.0 0.0 0.0 0.0 0.0 0.0 0.0 0.0 0.0 1.1 0.7 0.0 0.0 0.0 0.0 0.0 0.0 0.0 0.0 0.3 1.1 0.0 0.0 0.3 0.0 0.0 0.0 0.0 0.0 1.3 0.7 5.9 0.3 0.3 6.1 5.7
0.0 0.0 0.0 0.0 0.0 0.0 0.0 0.0 0.0 0.0 0.0 0.0 0.0 0.0 0.0 0.0 0.0 0.8 2.3 0.0 1.5 3.7 2.1 0.1 0.0 1.1 1.9 2.3 4.1 2.1 2.7 0.0 0.0 0.0 0.0 0.0 0.0 0.0 0.0 0.0 0.0 2.5 5.5
0.0 0.0 0.0 0.0 0.0 0.0 0.0 0.0 0.0 0.0 0.0 0.0 0.0 0.0 0.0 0.0 0.0 3.7 4.9 5.5 5.7 5.3 5.1 2.1 1.3 2.7 3.9 4.5 4.1 3.5 4.5 6.1 3.7 3.7 3.9 3.5 3.5 2.5 0.0 0.0 0.0 0.0 0.0
0.0 0.0 0.0 0.0 0.0 0.0 0.0 0.0 0.0 0.0 0.0 0.0 0.0 0.0 0.0 0.0 0.0 3.7 5.5 6.9 6.5 6.1 4.5 4.9 6.3 5.9 4.7 4.1 3.3 5.5 7.1 4.5 6.9 7.9 6.5 4.7 0.5 0.0 0.5 1.7 0.0 0.0 0.0
0.0 0.0 0.0 0.0 0.0 0.0 0.0 0.0 0.0 0.0 0.0 0.0 0.3 1.9 2.1 2.1 1.5 4.9 7.5 6.7 6.7 6.9 7.5 5.9 7.7 8.3 6.9 6.5 5.3 2.7 1.5 5.3 7.1 7.3 6.3 4.7 0.0 4.7 4.9 2.7 4.5 3.1 5.1
0.0 0.0 0.0 0.0 0.0 0.0 0.0 0.0 0.0 2.9 5.7 4.5 3.7 5.5 9.1 10.1 8.9 12.3 12.3 10.7 10.5 10.7 10.5 7.9 5.3 5.5 5.5 4.1 3.5 1.3 1.1 1.9 6.7 6.3 5.3 3.7 3.5 4.5 5.5 3.3 6.3 6.5 9.1
0.0 0.0 0.0 0.0 0.0 0.0 0.0 0.1 9.5 8.7 10.1 10.1 11.5 12.2 10.3 11.9 12.9 13.1 12.5 12.1 12.3 10.1 10.5 9.1 10.9 11.5 11.7 10.5 8.7 8.5 4.7 5.3 6.3 6.7 5.5 4.5 4.5 5.3 6.3 5.9 6.3 8.3 8.9
0.0 0.0 0.5 0.0 0.0 0.0 0.0 0.7 0.7 9.7 9.5 10.1 11.5 12.6 12.5 13.6 13.5 13.6 12.8 12.5 11.5 10.1 11.5 11.3 12.3 12.7 12.9 12.2 10.5 11.5 11.1 7.9 5.1 4.7 5.5 5.5 5.7 5.3 7.9 8.3 8.5 7.9 9.5
0.0 6.9 0.0 0.0 0.0 1.5 0.7 2.9 2.9 5.7 8.7 7.1 9.9 11.1 12.3 13.2 14.1 13.6 12.7 12.4 11.3 10.9 11.7 12.8 13.2 13.6 13.4 13.6 13.1 13.0 11.7 9.9 9.5 6.7 5.7 6.5 6.9 6.7 7.9 8.7 8.5 9.7 9.3
0.0 0.5 1.9 3.7 5.3 7.1 6.1 6.1 6.5 7.9 8.9 9.5 8.1 8.3 9.3 13.4 14.0 12.7 12.3 12.9 13.9 13.8 13.3 13.6 13.7 13.9 14.6 14.4 14.2 14.1 13.6 13.1 12.3 12.2 6.7 7.1 7.7 7.3 8.1 7.9 8.7 9.9 9.9
6.3 12.4 8.5 5.5 7.1 7.3 7.7 8.9 8.7 10.1 10.9 11.3 11.9 11.9 12.2 15.0 15.8 14.2 13.5 14.1 14.6 14.4 14.8 15.1 15.2 15.2 15.6 15.4 15.2 14.8 14.8 14.7 14.0 12.9 11.7 7.7 7.5 7.3 8.3 8.7 9.1 10.1 9.7
3.9 8.7 13.4 6.9 8.3 9.9 10.7 11.7 12.1 12.7 13.2 13.2 13.3 13.5 18.4 17.2 16.3 14.8 14.8 14.9 15.3 15.5 16.1 16.1 16.5 16.4 16.0 16.0 16.0 15.7 16.2 16.2 15.1 14.5 13.4 12.7 8.3 8.7 7.7 8.1 9.1 9.7 9.3
9.5 10.7 11.1 11.9 12.1 13.0 13.6 13.2 13.8 14.0 14.1 14.4 14.4 14.0 15.9 16.0 15.1 15.6 15.6 15.8 16.3 16.3 15.8 16.6 17.1 17.0 16.8 17.0 17.0 17.0 17.1 17.2 16.7 15.9 15.2 15.3 13.8 10.9 8.3 9.3 9.7 9.9 8.7
12.9 13.2 13.0 13.1 13.7 16.5 15.1 14.3 15.0 14.9 15.4 15.7 15.6 15.7 15.6 16.1 16.6 16.7 17.0 17.1 17.1 17.3 17.4 17.7 18.1 17.9 17.3 17.3 17.0 17.4 17.7 17.4 17.3 16.4 17.0 16.7 15.7 14.7 10.1 9.9 10.1 10.7 9.9
13.8 14.2 14.2 14.4 15.0 16.3 15.7 16.4 16.0 16.8 17.1 16.9 16.8 16.6 16.8 17.1 17.5 17.7 17.8 17.8 18.1 18.3 18.3 18.5 18.7 19.1 18.5 18.0 17.6 17.3 17.2 17.1 16.8 17.0 17.4 17.7 17.1 15.8 14.4 9.9 10.1 10.7 10.1
14.7 15.1 15.7 16.0 16.2 16.6 17.0 16.7 17.2 17.3 17.3 17.5 17.6 17.7 17.5 17.8 18.1 18.2 18.4 18.7 19.2 19.3 19.4 19.7 19.3 18.8 18.9 19.3 19.0 18.7 17.8 17.7 18.1 18.6 18.3 17.6 17.2 17.0 16.0 11.7 10.3 10.9 10.3
15.2 15.9 16.6 16.7 17.0 17.2 17.7 18.2 18.2 18.2 18.6 18.4 18.7 18.8 18.7 19.0 19.1 19.4 19.6 20.0 20.0 20.7 20.9 19.6 19.7 19.8 19.7 18.8 18.1 17.8 18.3 18.5 19.1 19.0 17.9 17.7 17.7 16.7 15.6 10.9 10.7 11.1 11.1